TimeWET,TemperatureF,Dew PointF,Humidity,Sea Level PressureIn,VisibilityMPH,Wind Direction,Wind SpeedMPH,Gust SpeedMPH,PrecipitationIn,Events,Conditions,WindDirDegrees,DateUTC
12:00 AM,47,44,84,30.20,6,ENE,2.3,,,,,60,2013-01-18 00:00:00
12:00 AM,46.4,44.6,93,30.18,-9999.0,ENE,2.3,-,N/A,,Clear,60,2013-01-18 00:00:00
1:00 AM,46.4,42.8,87,30.18,-9999.0,East,4.6,-,N/A,,Clear,100,2013-01-18 01:00:00
3:00 AM,43,40,85,30.18,6,Calm,Calm,,,,,,2013-01-18 03:00:00
3:00 AM,42.8,39.2,87,30.15,6.2,Calm,Calm,-,N/A,,Unknown,0,2013-01-18 03:00:00
4:00 AM,41.0,39.2,93,30.15,-9999.0,ENE,3.5,-,N/A,,Clear,70,2013-01-18 04:00:00
5:00 AM,41.0,39.2,93,30.15,-9999.0,ENE,5.8,-,N/A,,Clear,70,2013-01-18 05:00:00
6:00 AM,41,38,86,30.15,6,East,4.6,,,,,90,2013-01-18 06:00:00
6:00 AM,41.0,39.2,93,30.12,-9999.0,East,4.6,-,N/A,,Clear,90,2013-01-18 06:00:00
7:00 AM,39.2,37.4,93,30.12,-9999.0,NE,3.5,-,N/A,,Clear,50,2013-01-18 07:00:00
8:00 AM,39.2,37.4,93,30.15,-9999.0,East,4.6,-,N/A,,Clear,80,2013-01-18 08:00:00
9:00 AM,45,41,81,30.18,6,East,5.8,,,,,90,2013-01-18 09:00:00
9:00 AM,44.6,41.0,87,30.15,-9999.0,East,5.8,-,N/A,,Clear,90,2013-01-18 09:00:00
10:00 AM,55.4,46.4,72,30.18,-9999.0,East,2.3,-,N/A,,Clear,90,2013-01-18 10:00:00
11:00 AM,59.0,46.4,63,30.15,-9999.0,NE,4.6,-,N/A,,Clear,40,2013-01-18 11:00:00
12:00 PM,63,46,42,30.12,6,Calm,Calm,,,,,,2013-01-18 12:00:00
12:00 PM,62.6,46.4,55,30.12,-9999.0,Calm,Calm,-,N/A,,Clear,0,2013-01-18 12:00:00
1:00 PM,66.2,44.6,46,30.09,-9999.0,Calm,Calm,-,N/A,,Clear,0,2013-01-18 13:00:00
2:00 PM,68.0,41.0,37,30.06,-9999.0,West,10.4,-,N/A,,Clear,270,2013-01-18 14:00:00
3:00 PM,65,47,42,30.08,6,West,12.7,,,,,280,2013-01-18 15:00:00
3:00 PM,66.2,48.2,52,30.06,-9999.0,West,12.7,-,N/A,,Clear,280,2013-01-18 15:00:00
4:00 PM,66.2,48.2,52,30.06,-9999.0,WSW,8.1,-,N/A,,Clear,250,2013-01-18 16:00:00
5:00 PM,64.4,48.2,56,30.06,-9999.0,West,10.4,-,N/A,,Clear,270,2013-01-18 17:00:00
6:00 PM,59,51,66,30.07,6,WNW,9.2,,,,,290,2013-01-18 18:00:00
6:00 PM,59.0,50.0,72,30.06,-9999.0,WNW,9.2,-,N/A,,Clear,290,2013-01-18 18:00:00
7:00 PM,55.4,50.0,82,30.06,6.2,SW,3.5,-,N/A,,Unknown,220,2013-01-18 19:00:00
8:00 PM,53.6,50.0,88,30.09,-9999.0,SSE,5.8,-,N/A,,Clear,160,2013-01-18 20:00:00
9:00 PM,52,49,85,30.11,6,SE,4.6,,,,,140,2013-01-18 21:00:00
9:00 PM,51.8,48.2,88,30.09,-9999.0,SE,4.6,-,N/A,,Clear,140,2013-01-18 21:00:00
10:00 PM,50.0,48.2,94,30.09,-9999.0,South,4.6,-,N/A,,Clear,170,2013-01-18 22:00:00
11:00 PM,48.2,46.4,93,30.09,-9999.0,Calm,Calm,-,N/A,,Clear,0,2013-01-18 23:00:00